Location: �terpigny
(49.8910°N, 2.9249°E)
Time: 07:42:01
(UTC+00:00)

Gurwin Techsat 1B - Pass Details

Date: 06 July 2022
Orbit: 812 x 813 km, 98.8° (Epoch: 14 August)

Event Time Altitude Azimuth Distance (km) Brightness Sun altitude
Rises 01:44:10 0° 21° (NNE) 3,348 13.8 -13.3°
Reaches altitude 10° 01:46:44 10° 31° (NNE) 2,411 12.6 -13.2°
Maximum altitude 01:51:35 35° 96° (E) 1,295 9.9 -12.8°
Drops below altitude 10° 01:56:24 10° 162° (SSE) 2,395 10.7 -12.4°
Enters shadow 01:57:12 - 165° (SSE) 2,678 10.9 -12.4°
